Weather History for Carlsbad, NM

Change the Weather History Date:

Wednesday, July 2, 2014

  Actual Average Record
Temperature  
Mean Temperature 80 °F -  
Max Temperature 90 °F 95 °F 111 °F (1989)
Min Temperature 68 °F 67 °F 59 °F (1985)
Cooling Degree Days 15    
Growing Degree Days 30 (Base 50)    
Moisture  
Dew Point 59 °F    
Average Humidity 51    
Maximum Humidity 90    
Minimum Humidity 31    
Precipitation  
Precipitation 0.07 in - - ()
Sea Level Pressure  
Sea Level Pressure 29.97 in    
Wind  
Wind Speed 11 mph (NNE)    
Max Wind Speed 28 mph    
Max Gust Speed 34 mph    
Visibility 10 miles    
Events Rain , Thunderstorm    
Averages and records for this station are not official NWS values.
T = Trace of Precipitation, MM = Missing Value Source: NWS Daily Summary

Daily Weather History Graph

Daily Weather History Graph

Search for Another Location

Airport:

Trip Planner

Search our weather history database for the weather conditions in past years. The results will help you decide how hot, cold, wet, or windy it might be!

Date:

Astronomy

Jul. 02, 2014 Rise Set
Actual Time 5:54 AM MDT 8:07 PM MDT
Civil Twilight 5:25 AM MDT 8:36 PM MDT
Nautical Twilight 4:51 AM MDT 9:10 PM MDT
Astronomical Twilight 4:13 AM MDT 9:48 PM MDT
Moon 10:42 AM MDT (7/2) 11:21 PM MDT (7/2)
Length of Visible Light 15h 10m
Length of Day
14h 13m
Waxing Crescent, 25% of the Moon is Illuminated
Jul 2
Waxing Crescent
Jul 5
First Quarter
Jul 12
Full
Jul 18
Last Quarter
Jul 26
New

Hourly Weather History & Observations

Time (MDT) Temp. Heat Index Dew Point Humidity Pressure Visibility Wind Dir Wind Speed Gust Speed Precip Events Conditions
12:53 AM 79.0 °F - 60.1 °F 52% 29.86 in 10.0 mi SW 4.6 mph - N/A   Scattered Clouds
1:15 AM 79.0 °F - 60.1 °F 52% 30.04 in 10.0 mi SW 6.9 mph - N/A Thunderstorm Mostly Cloudy
1:44 AM 79.0 °F - 59.0 °F 50% 30.05 in 10.0 mi WSW 3.5 mph - N/A   Mostly Cloudy
1:53 AM 80.1 °F 80.6 °F 57.9 °F 47% 29.86 in 10.0 mi WSW 3.5 mph - N/A   Mostly Cloudy
2:53 AM 80.1 °F 80.4 °F 57.0 °F 45% 29.86 in 10.0 mi North 4.6 mph - N/A   Scattered Clouds
3:53 AM 75.9 °F - 63.0 °F 64% 29.85 in 10.0 mi NNW 11.5 mph - N/A   Clear
4:53 AM 75.0 °F - 59.0 °F 57% 29.86 in 10.0 mi NNW 13.8 mph - N/A   Clear
5:53 AM 75.0 °F - 55.9 °F 51% 29.92 in 10.0 mi North 15.0 mph - N/A   Clear
6:53 AM 73.9 °F - 55.9 °F 53% 29.97 in 9.0 mi North 20.7 mph 28.8 mph N/A   Mostly Cloudy
7:53 AM 73.0 °F - 55.0 °F 53% 30.01 in 10.0 mi North 25.3 mph 31.1 mph N/A   Overcast
8:53 AM 77.0 °F - 55.0 °F 47% 30.01 in 10.0 mi NNE 20.7 mph 27.6 mph N/A   Mostly Cloudy
9:53 AM 79.0 °F - 55.0 °F 44% 29.99 in 10.0 mi NE 13.8 mph - N/A   Clear
10:53 AM 82.9 °F 82.8 °F 59.0 °F 44% 29.99 in 10.0 mi NE 11.5 mph - N/A   Clear
11:53 AM 82.9 °F 82.6 °F 57.9 °F 42% 29.98 in 10.0 mi NNW 11.5 mph 19.6 mph N/A   Mostly Cloudy
12:53 PM 84.9 °F 84.2 °F 57.9 °F 40% 29.96 in 10.0 mi NNW 9.2 mph 19.6 mph N/A   Scattered Clouds
1:53 PM 87.1 °F 85.9 °F 57.0 °F 36% 29.94 in 10.0 mi North 9.2 mph 17.3 mph N/A   Clear
2:53 PM 89.6 °F 87.7 °F 55.4 °F 31% 30.12 in 10.0 mi ESE 6.9 mph - N/A   Partly Cloudy
3:31 PM 84.0 °F 83.8 °F 59.0 °F 43% 30.11 in 10.0 mi North 18.4 mph - N/A   Mostly Cloudy
3:53 PM 84.0 °F 83.8 °F 59.0 °F 43% 29.93 in 10.0 mi North 19.6 mph - N/A   Partly Cloudy
4:53 PM 88.0 °F 86.9 °F 57.9 °F 36% 29.88 in 10.0 mi North 11.5 mph - N/A   Clear
5:53 PM 88.0 °F 87.1 °F 59.0 °F 37% 29.88 in 10.0 mi North 17.3 mph - N/A   Clear
6:53 PM 79.0 °F - 57.9 °F 48% 29.93 in 6.0 mi East 27.6 mph 34.5 mph N/A   Haze
7:01 PM 77.0 °F - 60.1 °F 56% 30.10 in 10.0 mi ENE 19.6 mph 33.4 mph N/A   Mostly Cloudy
7:53 PM 75.0 °F - 61.0 °F 62% 29.96 in 10.0 mi ENE 18.4 mph 25.3 mph N/A   Scattered Clouds
8:53 PM 73.9 °F - 59.0 °F 59% 29.98 in 10.0 mi East 15.0 mph 20.7 mph 0.00 in Rain Light Rain
9:53 PM 71.1 °F - 60.1 °F 68% 30.02 in 9.0 mi East 10.4 mph - 0.01 in Rain Light Rain
10:53 PM 71.1 °F - 63.0 °F 75% 30.03 in 10.0 mi NE 5.8 mph - 0.01 in   Overcast
11:53 PM 68.0 °F - 64.9 °F 90% 30.04 in 6.0 mi NE 11.5 mph - 0.05 in Rain Light Rain